Year,Month,Day,Hour,Minute,Value (Times are PST for temperature in C)
2008,08,30,00,00,14.20
2008,08,30,00,01,14.20
2008,08,30,00,02,14.30
2008,08,30,00,03,14.30
2008,08,30,00,04,14.30
2008,08,30,00,05,14.30
2008,08,30,00,06,14.30
2008,08,30,00,07,14.30
2008,08,30,00,08,14.30
2008,08,30,00,09,14.30
2008,08,30,00,10,14.30
2008,08,30,00,11,14.30
2008,08,30,00,12,14.20
2008,08,30,00,13,14.20
2008,08,30,00,14,14.20
2008,08,30,00,15,14.10
2008,08,30,00,16,14.10
2008,08,30,00,17,14.10
2008,08,30,00,18,14.10
2008,08,30,00,19,14.10
2008,08,30,00,20,14.10
2008,08,30,00,21,14.10
2008,08,30,00,22,14.10
2008,08,30,00,23,14.10
2008,08,30,00,24,14.00
2008,08,30,00,25,14.00
2008,08,30,00,26,14.00
2008,08,30,00,27,13.90
2008,08,30,00,28,13.90
2008,08,30,00,29,13.90
2008,08,30,00,30,13.90
2008,08,30,00,31,13.90
2008,08,30,00,32,13.80
2008,08,30,00,33,13.80
2008,08,30,00,34,13.80
2008,08,30,00,35,13.80
2008,08,30,00,36,13.80
2008,08,30,00,37,13.80
2008,08,30,00,38,13.70
2008,08,30,00,39,13.70
2008,08,30,00,40,13.70
2008,08,30,00,41,13.60
2008,08,30,00,42,13.60
2008,08,30,00,43,13.60
2008,08,30,00,44,13.60
2008,08,30,00,45,13.50
2008,08,30,00,46,13.50
2008,08,30,00,47,13.50
2008,08,30,00,48,13.40
2008,08,30,00,49,13.40
2008,08,30,00,50,13.40
2008,08,30,00,51,13.40
2008,08,30,00,52,13.30
2008,08,30,00,53,13.30
2008,08,30,00,54,13.30
2008,08,30,00,55,13.30
2008,08,30,00,56,13.30
2008,08,30,00,57,13.30
2008,08,30,00,58,13.30
2008,08,30,00,59,13.30
2008,08,30,01,00,13.30
2008,08,30,01,01,13.30
2008,08,30,01,02,13.30
2008,08,30,01,03,13.30
2008,08,30,01,04,13.30
2008,08,30,01,05,13.30
2008,08,30,01,06,13.30
2008,08,30,01,07,13.30
2008,08,30,01,08,13.20
2008,08,30,01,09,13.20
2008,08,30,01,10,13.20
2008,08,30,01,11,13.20
2008,08,30,01,12,13.20
2008,08,30,01,13,13.20
2008,08,30,01,14,13.10
2008,08,30,01,15,13.10
2008,08,30,01,16,13.10
2008,08,30,01,17,13.10
2008,08,30,01,18,13.10
2008,08,30,01,19,13.10
2008,08,30,01,20,13.10
2008,08,30,01,21,13.10
2008,08,30,01,22,13.10
2008,08,30,01,23,13.20
2008,08,30,01,24,13.20
2008,08,30,01,25,13.20
2008,08,30,01,26,13.30
2008,08,30,01,27,13.30
2008,08,30,01,28,13.30
2008,08,30,01,29,13.40
2008,08,30,01,30,13.40
2008,08,30,01,31,13.40
2008,08,30,01,32,13.40
2008,08,30,01,33,13.40
2008,08,30,01,34,13.40
2008,08,30,01,35,13.50
2008,08,30,01,36,13.50
2008,08,30,01,37,13.50
2008,08,30,01,38,13.50
2008,08,30,01,39,13.50
2008,08,30,01,40,13.50
2008,08,30,01,41,13.50
2008,08,30,01,42,13.60
2008,08,30,01,43,13.60
2008,08,30,01,44,13.60
2008,08,30,01,45,13.70
2008,08,30,01,46,13.70
2008,08,30,01,47,13.60
2008,08,30,01,48,13.60
2008,08,30,01,49,13.60
2008,08,30,01,50,13.60
2008,08,30,01,51,13.70
2008,08,30,01,52,13.70
2008,08,30,01,53,13.70
2008,08,30,01,54,13.70
2008,08,30,01,55,13.70
2008,08,30,01,56,13.70
2008,08,30,01,57,13.70
2008,08,30,01,58,13.70
2008,08,30,01,59,13.70
2008,08,30,02,00,13.70
2008,08,30,02,01,13.70
2008,08,30,02,02,13.70
2008,08,30,02,03,13.60
2008,08,30,02,04,13.60
2008,08,30,02,05,13.60
2008,08,30,02,06,13.60
2008,08,30,02,07,13.60
2008,08,30,02,08,13.60
2008,08,30,02,09,13.60
2008,08,30,02,10,13.70
2008,08,30,02,11,13.70
2008,08,30,02,12,13.70
2008,08,30,02,13,13.70
2008,08,30,02,14,13.70
2008,08,30,02,15,13.70
2008,08,30,02,16,13.70
2008,08,30,02,17,13.70
2008,08,30,02,18,13.70
2008,08,30,02,19,13.70
2008,08,30,02,20,13.70
2008,08,30,02,21,13.70
2008,08,30,02,22,13.70
2008,08,30,02,23,13.70
2008,08,30,02,24,13.70
2008,08,30,02,25,13.70
2008,08,30,02,26,13.70
2008,08,30,02,27,13.70
2008,08,30,02,28,13.60
2008,08,30,02,29,13.60
2008,08,30,02,30,13.60
2008,08,30,02,31,13.60
2008,08,30,02,32,13.50
2008,08,30,02,33,13.50
2008,08,30,02,34,13.50
2008,08,30,02,35,13.50
2008,08,30,02,36,13.50
2008,08,30,02,37,13.50
2008,08,30,02,38,13.50
2008,08,30,02,39,13.50
2008,08,30,02,40,13.50
2008,08,30,02,41,13.50
2008,08,30,02,42,13.50
2008,08,30,02,43,13.50
2008,08,30,02,44,13.50
2008,08,30,02,45,13.50
2008,08,30,02,46,13.50
2008,08,30,02,47,13.50
2008,08,30,02,48,13.50
2008,08,30,02,49,13.50
2008,08,30,02,50,13.50
2008,08,30,02,51,13.50
2008,08,30,02,52,13.50
2008,08,30,02,53,13.50
2008,08,30,02,54,13.50
2008,08,30,02,55,13.50
2008,08,30,02,56,13.50
2008,08,30,02,57,13.40
2008,08,30,02,58,13.40
2008,08,30,02,59,13.40
2008,08,30,03,00,13.40
2008,08,30,03,01,13.40
2008,08,30,03,02,13.40
2008,08,30,03,03,13.40
2008,08,30,03,04,13.40
2008,08,30,03,05,13.40
2008,08,30,03,06,13.30
2008,08,30,03,07,13.30
2008,08,30,03,08,13.30
2008,08,30,03,09,13.30
2008,08,30,03,10,13.30
2008,08,30,03,11,13.30
2008,08,30,03,12,13.30
2008,08,30,03,13,13.30
2008,08,30,03,14,13.20
2008,08,30,03,15,13.20
2008,08,30,03,16,13.20
2008,08,30,03,17,13.20
2008,08,30,03,18,13.20
2008,08,30,03,19,13.20
2008,08,30,03,20,13.20
2008,08,30,03,21,13.10
2008,08,30,03,22,13.10
2008,08,30,03,23,13.10
2008,08,30,03,24,13.00
2008,08,30,03,25,13.00
2008,08,30,03,26,13.00
2008,08,30,03,27,12.90
2008,08,30,03,28,12.90
2008,08,30,03,29,12.90
2008,08,30,03,30,12.80
2008,08,30,03,31,12.80
2008,08,30,03,32,12.80
2008,08,30,03,33,12.70
2008,08,30,03,34,12.70
2008,08,30,03,35,12.70
2008,08,30,03,36,12.70
2008,08,30,03,37,12.70
2008,08,30,03,38,12.70
2008,08,30,03,39,12.70
2008,08,30,03,40,12.70
2008,08,30,03,41,12.70
2008,08,30,03,42,12.70
2008,08,30,03,43,12.70
2008,08,30,03,44,12.70
2008,08,30,03,45,12.70
2008,08,30,03,46,12.70
2008,08,30,03,47,12.70
2008,08,30,03,48,12.70
2008,08,30,03,49,12.60
2008,08,30,03,50,12.60
2008,08,30,03,51,12.60
2008,08,30,03,52,12.50
2008,08,30,03,53,12.50
2008,08,30,03,54,12.40
2008,08,30,03,55,12.40
2008,08,30,03,56,12.40
2008,08,30,03,57,12.30
2008,08,30,03,58,12.30
2008,08,30,03,59,12.30
2008,08,30,04,00,12.30
2008,08,30,04,01,12.30
2008,08,30,04,02,12.20
2008,08,30,04,03,12.20
2008,08,30,04,04,12.10
2008,08,30,04,05,12.10
2008,08,30,04,06,12.00
2008,08,30,04,07,12.00
2008,08,30,04,08,11.90
2008,08,30,04,09,11.90
2008,08,30,04,10,11.80
2008,08,30,04,11,11.80
2008,08,30,04,12,11.80
2008,08,30,04,13,11.70
2008,08,30,04,14,11.70
2008,08,30,04,15,11.60
2008,08,30,04,16,11.60
2008,08,30,04,17,11.50
2008,08,30,04,18,11.50
2008,08,30,04,19,11.40
2008,08,30,04,20,11.30
2008,08,30,04,21,11.30
2008,08,30,04,22,11.20
2008,08,30,04,23,11.20
2008,08,30,04,24,11.10
2008,08,30,04,25,11.10
2008,08,30,04,26,11.00
2008,08,30,04,27,11.00
2008,08,30,04,28,10.90
2008,08,30,04,29,10.90
2008,08,30,04,30,10.80
2008,08,30,04,31,10.80
2008,08,30,04,32,10.80
2008,08,30,04,33,10.70
2008,08,30,04,34,10.70
2008,08,30,04,35,10.60
2008,08,30,04,36,10.60
2008,08,30,04,37,10.60
2008,08,30,04,38,10.50
2008,08,30,04,39,10.50
2008,08,30,04,40,10.40
2008,08,30,04,41,10.40
2008,08,30,04,42,10.40
2008,08,30,04,43,10.30
2008,08,30,04,44,10.30
2008,08,30,04,45,10.30
2008,08,30,04,46,10.30
2008,08,30,04,47,10.20
2008,08,30,04,48,10.20
2008,08,30,04,49,10.20
2008,08,30,04,50,10.10
2008,08,30,04,51,10.10
2008,08,30,04,52,10.10
2008,08,30,04,53,10.00
2008,08,30,04,54,10.00
2008,08,30,04,55,10.00
2008,08,30,04,56,9.90
2008,08,30,04,57,9.90
2008,08,30,04,58,9.80
2008,08,30,04,59,9.80
2008,08,30,05,00,9.80
2008,08,30,05,01,9.80
2008,08,30,05,02,9.70
2008,08,30,05,03,9.70
2008,08,30,05,04,9.70
2008,08,30,05,05,9.70
2008,08,30,05,06,9.60
2008,08,30,05,07,9.60
2008,08,30,05,08,9.60
2008,08,30,05,09,9.60
2008,08,30,05,10,9.60
2008,08,30,05,11,9.50
2008,08,30,05,12,9.50
2008,08,30,05,13,9.40
2008,08,30,05,14,9.40
2008,08,30,05,15,9.40
2008,08,30,05,16,9.40
2008,08,30,05,17,9.40
2008,08,30,05,18,9.30
2008,08,30,05,19,9.30
2008,08,30,05,20,9.30
2008,08,30,05,21,9.30
2008,08,30,05,22,9.30
2008,08,30,05,23,9.30
2008,08,30,05,24,9.20
2008,08,30,05,25,9.20
2008,08,30,05,26,9.20
2008,08,30,05,27,9.20
2008,08,30,05,28,9.20
2008,08,30,05,29,9.20
2008,08,30,05,30,9.20
2008,08,30,05,31,9.20
2008,08,30,05,32,9.10
2008,08,30,05,33,9.10
2008,08,30,05,34,9.10
2008,08,30,05,35,9.10
2008,08,30,05,36,9.10
2008,08,30,05,37,9.10
2008,08,30,05,38,9.10
2008,08,30,05,39,9.10
2008,08,30,05,40,9.10
2008,08,30,05,41,9.10
2008,08,30,05,42,9.10
2008,08,30,05,43,9.10
2008,08,30,05,44,9.10
2008,08,30,05,45,9.10
2008,08,30,05,46,9.10
2008,08,30,05,47,9.10
2008,08,30,05,48,9.10
2008,08,30,05,49,9.10
2008,08,30,05,50,9.10
2008,08,30,05,51,9.00
2008,08,30,05,52,9.00
2008,08,30,05,53,9.00
2008,08,30,05,54,9.00
2008,08,30,05,55,8.90
2008,08,30,05,56,8.90
2008,08,30,05,57,8.90
2008,08,30,05,58,8.90
2008,08,30,05,59,8.90
2008,08,30,06,00,8.90
2008,08,30,06,01,8.90
2008,08,30,06,02,8.90
2008,08,30,06,03,8.90
2008,08,30,06,04,8.90
2008,08,30,06,05,9.00
2008,08,30,06,06,9.00
2008,08,30,06,07,9.00
2008,08,30,06,08,9.00
2008,08,30,06,09,9.10
2008,08,30,06,10,9.10
2008,08,30,06,11,9.10
2008,08,30,06,12,9.10
2008,08,30,06,13,9.10
2008,08,30,06,14,9.10
2008,08,30,06,15,9.10
2008,08,30,06,16,9.10
2008,08,30,06,17,9.10
2008,08,30,06,18,9.10
2008,08,30,06,19,9.10
2008,08,30,06,20,9.10
2008,08,30,06,21,9.10
2008,08,30,06,22,9.20
2008,08,30,06,23,9.20
2008,08,30,06,24,9.20
2008,08,30,06,25,9.20
2008,08,30,06,26,9.20
2008,08,30,06,27,9.20
2008,08,30,06,28,9.20
2008,08,30,06,29,9.20
2008,08,30,06,30,9.20
2008,08,30,06,31,9.20
2008,08,30,06,32,9.30
2008,08,30,06,33,9.30
2008,08,30,06,34,9.30
2008,08,30,06,35,9.30
2008,08,30,06,36,9.30
2008,08,30,06,37,9.30
2008,08,30,06,38,9.30
2008,08,30,06,39,9.30
2008,08,30,06,40,9.30
2008,08,30,06,41,9.30
2008,08,30,06,42,9.30
2008,08,30,06,43,9.30
2008,08,30,06,44,9.30
2008,08,30,06,45,9.30
2008,08,30,06,46,9.30
2008,08,30,06,47,9.30
2008,08,30,06,48,9.30
2008,08,30,06,49,9.30
2008,08,30,06,50,9.30
2008,08,30,06,51,9.30
2008,08,30,06,52,9.40
2008,08,30,06,53,9.40
2008,08,30,06,54,9.40
2008,08,30,06,55,9.40
2008,08,30,06,56,9.40
2008,08,30,06,57,9.40
2008,08,30,06,58,9.50
2008,08,30,06,59,9.50
2008,08,30,07,00,9.50
2008,08,30,07,01,9.60
2008,08,30,07,02,9.60
2008,08,30,07,03,9.60
2008,08,30,07,04,9.60
2008,08,30,07,05,9.60
2008,08,30,07,06,9.70
2008,08,30,07,07,9.70
2008,08,30,07,08,9.70
2008,08,30,07,09,9.70
2008,08,30,07,10,9.80
2008,08,30,07,11,9.80
2008,08,30,07,12,9.80
2008,08,30,07,13,9.90
2008,08,30,07,14,9.90
2008,08,30,07,15,9.90
2008,08,30,07,16,9.90
2008,08,30,07,17,9.90
2008,08,30,07,18,9.90
2008,08,30,07,19,9.90
2008,08,30,07,20,9.90
2008,08,30,07,21,9.90
2008,08,30,07,22,10.00
2008,08,30,07,23,10.00
2008,08,30,07,24,10.00
2008,08,30,07,25,10.00
2008,08,30,07,26,10.00
2008,08,30,07,27,10.10
2008,08,30,07,28,10.10
2008,08,30,07,29,10.10
2008,08,30,07,30,10.10
2008,08,30,07,31,10.10
2008,08,30,07,32,10.20
2008,08,30,07,33,10.20
2008,08,30,07,34,10.20
2008,08,30,07,35,10.20
2008,08,30,07,36,10.20
2008,08,30,07,37,10.30
2008,08,30,07,38,10.30
2008,08,30,07,39,10.30
2008,08,30,07,40,10.30
2008,08,30,07,41,10.40
2008,08,30,07,42,10.40
2008,08,30,07,43,10.40
2008,08,30,07,44,10.50
2008,08,30,07,45,10.50
2008,08,30,07,46,10.50
2008,08,30,07,47,10.60
2008,08,30,07,48,10.60
2008,08,30,07,49,10.70
2008,08,30,07,50,10.70
2008,08,30,07,51,10.70
2008,08,30,07,52,10.80
2008,08,30,07,53,10.80
2008,08,30,07,54,10.80
2008,08,30,07,55,10.80
2008,08,30,07,56,10.90
2008,08,30,07,57,10.90
2008,08,30,07,58,10.90
2008,08,30,07,59,11.00
2008,08,30,08,00,11.10
2008,08,30,08,01,11.10
2008,08,30,08,02,11.10
2008,08,30,08,03,11.20
2008,08,30,08,04,11.20
2008,08,30,08,05,11.20
2008,08,30,08,06,11.30
2008,08,30,08,07,11.30
2008,08,30,08,08,11.40
2008,08,30,08,09,11.50
2008,08,30,08,10,11.50
2008,08,30,08,11,11.60
2008,08,30,08,12,11.70
2008,08,30,08,13,11.80
2008,08,30,08,14,11.90
2008,08,30,08,15,12.00
2008,08,30,08,16,12.10
2008,08,30,08,17,12.20
2008,08,30,08,18,12.20
2008,08,30,08,19,12.30
2008,08,30,08,20,12.40
2008,08,30,08,21,12.50
2008,08,30,08,22,12.50
2008,08,30,08,23,12.60
2008,08,30,08,24,12.70
2008,08,30,08,25,12.70
2008,08,30,08,26,12.80
2008,08,30,08,27,12.90
2008,08,30,08,28,12.80
2008,08,30,08,29,12.80
2008,08,30,08,30,12.80
2008,08,30,08,31,12.90
2008,08,30,08,32,12.90
2008,08,30,08,33,13.00
2008,08,30,08,34,13.00
2008,08,30,08,35,13.00
2008,08,30,08,36,13.10
2008,08,30,08,37,13.10
2008,08,30,08,38,13.10
2008,08,30,08,39,13.10
2008,08,30,08,40,13.10
2008,08,30,08,41,13.20
2008,08,30,08,42,13.20
2008,08,30,08,43,13.20
2008,08,30,08,44,13.20
2008,08,30,08,45,13.30
2008,08,30,08,46,13.30
2008,08,30,08,47,13.30
2008,08,30,08,48,13.30
2008,08,30,08,49,13.40
2008,08,30,08,50,13.40
2008,08,30,08,51,13.50
2008,08,30,08,52,13.50
2008,08,30,08,53,13.60
2008,08,30,08,54,13.60
2008,08,30,08,55,13.60
2008,08,30,08,56,13.70
2008,08,30,08,57,13.80
2008,08,30,08,58,13.90
2008,08,30,08,59,14.00
2008,08,30,09,00,14.10
2008,08,30,09,01,14.20
2008,08,30,09,02,14.20
2008,08,30,09,03,14.30
2008,08,30,09,04,14.30
2008,08,30,09,05,14.30
2008,08,30,09,06,14.40
2008,08,30,09,07,14.40
2008,08,30,09,08,14.30
2008,08,30,09,09,14.30
2008,08,30,09,10,14.30
2008,08,30,09,11,14.30
2008,08,30,09,12,14.30
2008,08,30,09,13,14.40
2008,08,30,09,14,14.50
2008,08,30,09,15,14.60
2008,08,30,09,16,14.60
2008,08,30,09,17,14.60
2008,08,30,09,18,14.50
2008,08,30,09,19,14.40
2008,08,30,09,20,14.40
2008,08,30,09,21,14.40
2008,08,30,09,22,14.40
2008,08,30,09,23,14.40
2008,08,30,09,24,14.40
2008,08,30,09,25,14.50
2008,08,30,09,26,14.50
2008,08,30,09,27,14.50
2008,08,30,09,28,14.40
2008,08,30,09,29,14.50
2008,08,30,09,30,14.50
2008,08,30,09,31,14.60
2008,08,30,09,32,14.50
2008,08,30,09,33,14.50
2008,08,30,09,34,14.50
2008,08,30,09,35,14.50
2008,08,30,09,36,14.50
2008,08,30,09,37,14.50
2008,08,30,09,38,14.60
2008,08,30,09,39,14.60
2008,08,30,09,40,14.60
2008,08,30,09,41,14.70
2008,08,30,09,42,14.70
2008,08,30,09,43,14.70
2008,08,30,09,44,14.80
2008,08,30,09,45,14.90
2008,08,30,09,46,15.00
2008,08,30,09,47,15.00
2008,08,30,09,48,15.00
2008,08,30,09,49,14.80
2008,08,30,09,50,14.80
2008,08,30,09,51,14.70
2008,08,30,09,52,14.70
2008,08,30,09,53,14.50
2008,08,30,09,54,14.50
2008,08,30,09,55,14.50
2008,08,30,09,56,14.50
2008,08,30,09,57,14.50
2008,08,30,09,58,14.40
2008,08,30,09,59,14.40
2008,08,30,10,00,14.40
2008,08,30,10,01,14.50
2008,08,30,10,02,14.50
2008,08,30,10,03,14.60
2008,08,30,10,04,14.60
2008,08,30,10,05,14.70
2008,08,30,10,06,14.70
2008,08,30,10,07,14.80
2008,08,30,10,08,14.80
2008,08,30,10,09,14.80
2008,08,30,10,10,14.80
2008,08,30,10,11,14.80
2008,08,30,10,12,14.80
2008,08,30,10,13,14.90
2008,08,30,10,14,14.90
2008,08,30,10,15,14.90
2008,08,30,10,16,14.90
2008,08,30,10,17,15.00
2008,08,30,10,18,15.00
2008,08,30,10,19,15.00
2008,08,30,10,20,15.20
2008,08,30,10,21,15.20
2008,08,30,10,22,15.20
2008,08,30,10,23,15.20
2008,08,30,10,24,15.20
2008,08,30,10,25,15.30
2008,08,30,10,26,15.30
2008,08,30,10,27,15.30
2008,08,30,10,28,15.30
2008,08,30,10,29,15.20
2008,08,30,10,30,15.20
2008,08,30,10,31,15.20
2008,08,30,10,32,15.30
2008,08,30,10,33,15.20
2008,08,30,10,34,15.30
2008,08,30,10,35,15.40
2008,08,30,10,36,15.40
2008,08,30,10,37,15.40
2008,08,30,10,38,15.50
2008,08,30,10,39,15.60
2008,08,30,10,40,15.60
2008,08,30,10,41,15.50
2008,08,30,10,42,15.40
2008,08,30,10,43,15.30
2008,08,30,10,44,15.20
2008,08,30,10,45,15.00
2008,08,30,10,46,15.00
2008,08,30,10,47,15.10
2008,08,30,10,48,15.30
2008,08,30,10,49,15.40
2008,08,30,10,50,15.40
2008,08,30,10,51,15.50
2008,08,30,10,52,15.70
2008,08,30,10,53,15.70
2008,08,30,10,54,15.80
2008,08,30,10,55,15.80
2008,08,30,10,56,15.90
2008,08,30,10,57,16.00
2008,08,30,10,58,16.10
2008,08,30,10,59,16.20
2008,08,30,11,00,16.20
2008,08,30,11,01,16.20
2008,08,30,11,02,16.10
2008,08,30,11,03,16.10
2008,08,30,11,04,16.10
2008,08,30,11,05,16.10
2008,08,30,11,06,16.20
2008,08,30,11,07,16.20
2008,08,30,11,08,16.20
2008,08,30,11,09,16.20
2008,08,30,11,10,16.30
2008,08,30,11,11,16.30
2008,08,30,11,12,16.30
2008,08,30,11,13,16.30
2008,08,30,11,14,16.30
2008,08,30,11,15,16.30
2008,08,30,11,16,16.40
2008,08,30,11,17,16.40
2008,08,30,11,18,16.50
2008,08,30,11,19,16.60
2008,08,30,11,20,16.60
2008,08,30,11,21,16.70
2008,08,30,11,22,16.60
2008,08,30,11,23,16.40
2008,08,30,11,24,16.30
2008,08,30,11,25,16.10
2008,08,30,11,26,16.10
2008,08,30,11,27,16.10
2008,08,30,11,28,16.10
2008,08,30,11,29,16.00
2008,08,30,11,30,16.10
2008,08,30,11,31,16.20
2008,08,30,11,32,16.30
2008,08,30,11,33,16.20
2008,08,30,11,34,16.10
2008,08,30,11,35,16.10
2008,08,30,11,36,16.00
2008,08,30,11,37,16.00
2008,08,30,11,38,16.00
2008,08,30,11,39,15.90
2008,08,30,11,40,15.90
2008,08,30,11,41,15.90
2008,08,30,11,42,15.80
2008,08,30,11,43,15.70
2008,08,30,11,44,15.70
2008,08,30,11,45,15.70
2008,08,30,11,46,15.70
2008,08,30,11,47,15.80
2008,08,30,11,48,15.80
2008,08,30,11,49,15.80
2008,08,30,11,50,15.80
2008,08,30,11,51,15.70
2008,08,30,11,52,15.60
2008,08,30,11,53,15.60
2008,08,30,11,54,15.50
2008,08,30,11,55,15.60
2008,08,30,11,56,15.60
2008,08,30,11,57,15.50
2008,08,30,11,58,15.50
2008,08,30,11,59,15.50
2008,08,30,12,00,15.50
2008,08,30,12,01,15.50
2008,08,30,12,02,15.40
2008,08,30,12,03,15.40
2008,08,30,12,04,15.40
2008,08,30,12,05,15.50
2008,08,30,12,06,15.60
2008,08,30,12,07,15.60
2008,08,30,12,08,15.70
2008,08,30,12,09,15.70
2008,08,30,12,10,15.80
2008,08,30,12,11,15.80
2008,08,30,12,12,15.90
2008,08,30,12,13,16.00
2008,08,30,12,14,16.00
2008,08,30,12,15,16.00
2008,08,30,12,16,15.90
2008,08,30,12,17,15.80
2008,08,30,12,18,15.70
2008,08,30,12,19,15.60
2008,08,30,12,20,15.60
2008,08,30,12,21,15.60
2008,08,30,12,22,15.60
2008,08,30,12,23,15.60
2008,08,30,12,24,15.70
2008,08,30,12,25,15.80
2008,08,30,12,26,15.90
2008,08,30,12,27,16.00
2008,08,30,12,28,16.00
2008,08,30,12,29,16.00
2008,08,30,12,30,16.00
2008,08,30,12,31,15.90
2008,08,30,12,32,15.90
2008,08,30,12,33,15.90
2008,08,30,12,34,15.90
2008,08,30,12,35,15.80
2008,08,30,12,36,15.80
2008,08,30,12,37,15.80
2008,08,30,12,38,15.70
2008,08,30,12,39,15.70
2008,08,30,12,40,15.60
2008,08,30,12,41,15.60
2008,08,30,12,42,15.50
2008,08,30,12,43,15.50
2008,08,30,12,44,15.40
2008,08,30,12,45,15.40
2008,08,30,12,46,15.40
2008,08,30,12,47,15.40
2008,08,30,12,48,15.50
2008,08,30,12,49,15.60
2008,08,30,12,50,15.60
2008,08,30,12,51,15.70
2008,08,30,12,52,15.80
2008,08,30,12,53,15.90
2008,08,30,12,54,16.10
2008,08,30,12,55,16.20
2008,08,30,12,56,16.30
2008,08,30,12,57,16.30
2008,08,30,12,58,16.30
2008,08,30,12,59,16.20
2008,08,30,13,00,16.10
2008,08,30,13,01,16.10
2008,08,30,13,02,16.10
2008,08,30,13,03,16.00
2008,08,30,13,04,16.00
2008,08,30,13,05,16.00
2008,08,30,13,06,16.00
2008,08,30,13,07,16.00
2008,08,30,13,08,16.10
2008,08,30,13,09,16.10
2008,08,30,13,10,16.10
2008,08,30,13,11,16.10
2008,08,30,13,12,16.10
2008,08,30,13,13,16.10
2008,08,30,13,14,16.10
2008,08,30,13,15,16.10
2008,08,30,13,16,16.20
2008,08,30,13,17,16.30
2008,08,30,13,18,16.30
2008,08,30,13,19,16.30
2008,08,30,13,20,16.30
2008,08,30,13,21,16.40
2008,08,30,13,22,16.40
2008,08,30,13,23,16.50
2008,08,30,13,24,16.50
2008,08,30,13,25,16.60
2008,08,30,13,26,16.60
2008,08,30,13,27,16.80
2008,08,30,13,28,16.90
2008,08,30,13,29,16.90
2008,08,30,13,30,17.00
2008,08,30,13,31,17.10
2008,08,30,13,32,17.20
2008,08,30,13,33,17.30
2008,08,30,13,34,17.40
2008,08,30,13,35,17.40
2008,08,30,13,36,17.30
2008,08,30,13,37,17.20
2008,08,30,13,38,17.30
2008,08,30,13,39,17.40
2008,08,30,13,40,17.40
2008,08,30,13,41,17.50
2008,08,30,13,42,17.60
2008,08,30,13,43,17.60
2008,08,30,13,44,17.60
2008,08,30,13,45,17.60
2008,08,30,13,46,17.60
2008,08,30,13,47,17.60
2008,08,30,13,48,17.60
2008,08,30,13,49,17.70
2008,08,30,13,50,17.70
2008,08,30,13,51,17.60
2008,08,30,13,52,17.30
2008,08,30,13,53,17.10
2008,08,30,13,54,17.00
2008,08,30,13,55,16.90
2008,08,30,13,56,16.80
2008,08,30,13,57,16.90
2008,08,30,13,58,16.90
2008,08,30,13,59,16.90
2008,08,30,14,00,16.80
2008,08,30,14,01,16.80
2008,08,30,14,02,16.80
2008,08,30,14,03,16.80
2008,08,30,14,04,16.80
2008,08,30,14,05,16.80
2008,08,30,14,06,16.90
2008,08,30,14,07,16.80
2008,08,30,14,08,16.70
2008,08,30,14,09,16.60
2008,08,30,14,10,16.60
2008,08,30,14,11,16.50
2008,08,30,14,12,16.50
2008,08,30,14,13,16.60
2008,08,30,14,14,16.70
2008,08,30,14,15,16.70
2008,08,30,14,16,16.70
2008,08,30,14,17,16.60
2008,08,30,14,18,16.60
2008,08,30,14,19,16.60
2008,08,30,14,20,16.60
2008,08,30,14,21,16.60
2008,08,30,14,22,16.60
2008,08,30,14,23,16.50
2008,08,30,14,24,16.50
2008,08,30,14,25,16.60
2008,08,30,14,26,16.70
2008,08,30,14,27,16.80
2008,08,30,14,28,16.90
2008,08,30,14,29,17.10
2008,08,30,14,30,17.20
2008,08,30,14,31,17.30
2008,08,30,14,32,17.40
2008,08,30,14,33,17.50
2008,08,30,14,34,17.50
2008,08,30,14,35,17.40
2008,08,30,14,36,17.30
2008,08,30,14,37,17.20
2008,08,30,14,38,17.20
2008,08,30,14,39,17.30
2008,08,30,14,40,17.20
2008,08,30,14,41,17.20
2008,08,30,14,42,17.10
2008,08,30,14,43,17.10
2008,08,30,14,44,17.10
2008,08,30,14,45,17.00
2008,08,30,14,46,16.90
2008,08,30,14,47,16.80
2008,08,30,14,48,16.80
2008,08,30,14,49,16.80
2008,08,30,14,50,16.80
2008,08,30,14,51,16.70
2008,08,30,14,52,16.60
2008,08,30,14,53,16.60
2008,08,30,14,54,16.50
2008,08,30,14,55,16.50
2008,08,30,14,56,16.50
2008,08,30,14,57,16.40
2008,08,30,14,58,16.40
2008,08,30,14,59,16.30
2008,08,30,15,00,16.20
2008,08,30,15,01,16.10
2008,08,30,15,02,16.10
2008,08,30,15,03,16.10
2008,08,30,15,04,16.10
2008,08,30,15,05,16.10
2008,08,30,15,06,16.10
2008,08,30,15,07,16.10
2008,08,30,15,08,16.10
2008,08,30,15,09,16.10
2008,08,30,15,10,16.20
2008,08,30,15,11,16.30
2008,08,30,15,12,16.30
2008,08,30,15,13,16.30
2008,08,30,15,14,16.30
2008,08,30,15,15,16.30
2008,08,30,15,16,16.30
2008,08,30,15,17,16.30
2008,08,30,15,18,16.30
2008,08,30,15,19,16.30
2008,08,30,15,20,16.30
2008,08,30,15,21,16.30
2008,08,30,15,22,16.30
2008,08,30,15,23,16.20
2008,08,30,15,24,16.20
2008,08,30,15,25,16.10
2008,08,30,15,26,16.00
2008,08,30,15,27,16.00
2008,08,30,15,28,16.00
2008,08,30,15,29,16.00
2008,08,30,15,30,16.00
2008,08,30,15,31,15.90
2008,08,30,15,32,15.90
2008,08,30,15,33,15.90
2008,08,30,15,34,15.90
2008,08,30,15,35,16.00
2008,08,30,15,36,16.00
2008,08,30,15,37,16.10
2008,08,30,15,38,16.10
2008,08,30,15,39,16.10
2008,08,30,15,40,16.20
2008,08,30,15,41,16.20
2008,08,30,15,42,16.30
2008,08,30,15,43,16.30
2008,08,30,15,44,16.20
2008,08,30,15,45,16.30
2008,08,30,15,46,16.30
2008,08,30,15,47,16.20
2008,08,30,15,48,16.30
2008,08,30,15,49,16.40
2008,08,30,15,50,16.50
2008,08,30,15,51,16.60
2008,08,30,15,52,16.70
2008,08,30,15,53,16.80
2008,08,30,15,54,16.90
2008,08,30,15,55,17.00
2008,08,30,15,56,17.10
2008,08,30,15,57,17.10
2008,08,30,15,58,17.20
2008,08,30,15,59,17.20
2008,08,30,16,00,17.10
2008,08,30,16,01,17.00
2008,08,30,16,02,16.80
2008,08,30,16,03,16.70
2008,08,30,16,04,16.50
2008,08,30,16,05,16.40
2008,08,30,16,06,16.20
2008,08,30,16,07,16.10
2008,08,30,16,08,16.00
2008,08,30,16,09,15.90
2008,08,30,16,10,15.80
2008,08,30,16,11,15.80
2008,08,30,16,12,15.90
2008,08,30,16,13,16.00
2008,08,30,16,14,16.00
2008,08,30,16,15,16.10
2008,08,30,16,16,16.10
2008,08,30,16,17,16.20
2008,08,30,16,18,16.30
2008,08,30,16,19,16.40
2008,08,30,16,20,16.40
2008,08,30,16,21,16.40
2008,08,30,16,22,16.40
2008,08,30,16,23,16.30
2008,08,30,16,24,16.30
2008,08,30,16,25,16.30
2008,08,30,16,26,16.30
2008,08,30,16,27,16.30
2008,08,30,16,28,16.40
2008,08,30,16,29,16.50
2008,08,30,16,30,16.50
2008,08,30,16,31,16.60
2008,08,30,16,32,16.60
2008,08,30,16,33,16.60
2008,08,30,16,34,16.60
2008,08,30,16,35,16.70
2008,08,30,16,36,16.70
2008,08,30,16,37,16.60
2008,08,30,16,38,16.50
2008,08,30,16,39,16.30
2008,08,30,16,40,16.30
2008,08,30,16,41,16.20
2008,08,30,16,42,16.20
2008,08,30,16,43,16.20
2008,08,30,16,44,16.20
2008,08,30,16,45,16.30
2008,08,30,16,46,16.30
2008,08,30,16,47,16.40
2008,08,30,16,48,16.40
2008,08,30,16,49,16.40
2008,08,30,16,50,16.40
2008,08,30,16,51,16.40
2008,08,30,16,52,16.50
2008,08,30,16,53,16.50
2008,08,30,16,54,16.60
2008,08,30,16,55,16.70
2008,08,30,16,56,16.70
2008,08,30,16,57,16.80
2008,08,30,16,58,16.80
2008,08,30,16,59,16.80
2008,08,30,17,00,16.80
2008,08,30,17,01,16.80
2008,08,30,17,02,16.80
2008,08,30,17,03,16.80
2008,08,30,17,04,16.80
2008,08,30,17,05,16.70
2008,08,30,17,06,16.70
2008,08,30,17,07,16.60
2008,08,30,17,08,16.50
2008,08,30,17,09,16.40
2008,08,30,17,10,16.40
2008,08,30,17,11,16.30
2008,08,30,17,12,16.20
2008,08,30,17,13,16.10
2008,08,30,17,14,15.90
2008,08,30,17,15,15.80
2008,08,30,17,16,15.70
2008,08,30,17,17,15.70
2008,08,30,17,18,15.60
2008,08,30,17,19,15.60
2008,08,30,17,20,15.60
2008,08,30,17,21,15.50
2008,08,30,17,22,15.50
2008,08,30,17,23,15.40
2008,08,30,17,24,15.30
2008,08,30,17,25,15.20